Wetbulb
78.09 78.38 76.60 73.29 66.06 63.68 59.25 59.72 63.73 61.18 61.83 65.99 65.28 63.95 64.58 65.69 64.05 60.90 70.86 71.87 73.03 74.04 75.29 75.09 76.85 76.38 76.49 76.35 76.56 76.21 76.46 76.73 76.84 76.52 76.55 76.74 77.04 76.79 76.97 76.94 77.34 77.37 77.27 77.12 77.50 77.59 77.56 77.61 77.19
78.83 77.68 76.14 70.82 62.26 56.45 58.45 62.78 61.12 63.32 65.49 66.77 66.25 66.72 65.50 65.36 69.54 68.66 68.76 71.95 73.63 74.18 74.15 74.66 77.56 77.21 76.54 76.29 76.82 76.62 76.08 75.94 76.30 75.83 76.22 76.10 76.73 77.01 77.07 77.46 77.57 77.01 77.37 77.22 77.59 77.06 76.94 77.00 77.08
78.05 76.70 70.87 67.08 63.49 58.10 58.56 62.95 63.84 65.44 66.32 65.75 66.30 68.92 67.69 67.00 69.07 68.68 71.16 72.58 73.64 74.09 74.80 76.33 76.80 76.91 76.86 76.87 76.62 76.63 76.53 76.02 75.86 75.80 76.00 76.54 76.82 77.05 76.70 77.26 77.32 77.63 77.57 76.75 76.66 76.92 77.39 77.10 76.79
74.69 73.47 71.45 63.54 59.88 62.61 63.39 65.05 65.80 65.55 65.82 66.42 67.57 65.39 68.82 71.29 69.25 71.02 71.82 72.70 73.41 74.23 75.70 76.33 76.64 77.16 77.11 77.01 76.76 77.04 76.02 75.33 74.92 75.66 76.03 76.48 76.87 77.16 77.36 77.43 77.24 77.28 77.47 76.97 77.42 77.03 76.72 76.94 76.78
75.27 70.45 65.16 61.73 61.90 64.16 66.46 66.51 66.87 65.02 65.16 65.65 65.73 64.02 66.60 70.45 72.04 72.02 72.05 73.18 73.09 74.31 76.33 76.68 77.75 77.60 77.41 76.88 76.91 77.19 76.89 76.92 76.69 76.66 76.43 76.49 77.13 77.20 77.26 77.15 77.25 77.36 77.25 76.61 77.28 77.03 76.51 76.75 76.96
70.41 69.52 61.12 58.91 61.23 64.30 66.46 67.21 66.77 66.22 66.26 64.70 65.34 66.50 66.95 71.50 70.97 71.81 72.54 72.81 74.01 74.92 76.12 76.87 77.45 77.59 77.42 76.88 77.21 77.33 77.26 76.50 75.00 76.78 76.41 76.67 77.14 77.06 77.51 76.96 77.34 77.36 77.45 77.13 76.84 76.71 77.02 76.93 77.05
68.45 65.92 60.48 60.26 61.00 62.97 65.25 68.30 66.49 66.14 64.98 63.56 66.58 64.09 67.77 69.43 71.17 71.97 72.37 73.39 74.55 76.08 76.10 76.70 77.70 77.99 76.65 76.79 76.57 77.34 77.16 76.79 76.93 76.97 77.10 77.08 76.92 76.89 77.36 76.83 77.42 77.22 77.17 76.85 76.21 76.82 76.98 77.16 77.10
72.17 68.51 61.57 61.96 60.61 62.05 66.87 67.91 68.51 67.28 65.39 69.22 69.16 63.21 65.23 69.83 71.59 72.22 72.94 73.65 75.01 75.75 75.98 76.25 76.55 76.84 76.66 75.67 77.30 77.53 77.46 77.02 77.31 77.37 77.10 77.00 77.31 76.66 77.17 77.13 77.61 77.02 76.90 76.93 77.27 76.91 76.77 76.97 77.40
72.04 63.31 59.65 60.53 61.12 64.13 67.99 66.88 69.20 70.49 67.65 69.10 70.01 67.71 70.08 71.72 72.28 72.08 72.44 73.32 74.53 74.84 75.60 76.02 76.05 76.12 77.42 77.11 78.06 77.74 77.51 77.02 77.32 77.33 77.43 77.64 75.77 77.30 77.89 77.30 76.69 77.22 76.96 77.35 76.86 76.83 76.83 76.61 77.05
68.67 62.36 62.34 65.27 65.32 65.85 67.15 67.25 68.19 67.57 67.24 68.28 69.36 70.69 71.08 71.28 71.26 70.66 71.07 71.62 72.85 73.66 74.68 75.50 75.79 75.06 76.90 75.84 78.12 77.96 77.69 78.53 78.84 78.16 78.22 77.96 75.94 77.68 77.46 77.55 77.05 76.92 77.02 77.05 77.11 76.56 76.36 76.94 76.83
66.61 63.15 65.84 65.93 66.45 68.32 66.63 66.94 68.91 66.95 65.22 68.54 68.29 69.02 70.04 70.36 70.39 70.19 70.87 71.53 72.12 73.82 74.65 75.49 75.77 75.79 76.23 76.13 76.91 76.16 77.85 77.72 79.18 78.94 78.09 78.26 76.39 76.85 77.28 77.54 77.83 76.72 77.55 76.98 77.35 76.94 76.84 77.15 77.31
62.64 65.17 67.21 66.82 67.39 66.86 66.18 68.15 67.06 67.80 67.08 70.51 71.30 70.75 70.65 70.17 70.01 69.76 69.80 70.88 72.07 73.37 74.57 75.18 75.90 75.70 76.01 76.29 75.89 76.16 76.78 76.78 78.95 78.69 77.06 77.89 76.64 76.95 77.58 78.46 77.45 77.60 76.28 76.04 77.44 76.38 76.96 77.27 76.94
60.79 63.05 66.35 67.32 67.38 67.62 68.00 66.59 66.65 67.95 69.90 71.80 71.88 70.77 70.01 70.07 70.28 70.75 71.23 71.79 72.72 72.96 74.16 74.66 75.70 75.94 76.42 76.63 76.24 76.16 76.02 76.36 77.06 77.55 77.37 76.76 76.39 76.18 76.01 76.35 76.63 77.28 76.33 75.72 75.33 74.26 72.96 76.88 76.41
61.24 64.23 66.15 67.34 67.08 67.22 65.34 65.58 67.12 68.11 71.02 70.89 71.12 70.02 69.35 69.72 70.71 71.24 71.38 71.92 72.86 73.47 73.81 74.94 75.50 76.17 76.27 75.62 76.82 75.81 75.93 76.20 76.74 77.21 77.72 78.15 77.03 76.13 77.05 76.27 76.39 76.84 76.78 76.41 75.98 73.25 73.45 75.24 72.50
61.10 60.84 65.19 65.55 66.79 65.64 66.07 63.37 64.85 69.94 70.71 69.77 70.44 70.34 69.72 70.95 71.89 71.85 72.60 72.99 73.71 74.16 74.55 74.59 75.49 75.79 75.74 76.04 76.37 75.45 75.14 75.81 76.08 76.65 77.93 77.80 77.53 77.95 76.96 75.71 76.12 76.16 77.02 77.28 76.45 76.33 77.02 75.43 73.91
57.98 59.81 57.56 63.43 65.62 65.60 65.62 60.32 66.80 70.44 69.80 68.60 69.42 70.05 70.17 71.05 72.02 73.08 73.75 73.97 74.77 74.57 74.79 75.31 74.74 74.82 75.01 75.27 75.84 75.19 74.71 75.54 76.53 76.92 77.42 78.37 78.22 77.97 77.76 74.95 75.61 76.47 76.41 76.22 76.02 75.89 76.78 73.66 72.02
57.62 54.58 55.79 57.21 64.72 64.39 64.06 61.55 66.61 69.95 70.05 67.74 69.02 69.66 69.94 71.12 72.32 73.41 73.85 74.47 74.80 75.31 75.30 75.45 75.64 74.68 74.96 75.40 75.98 75.62 76.18 76.28 76.68 77.29 77.28 78.84 78.73 78.67 78.85 77.85 75.56 76.90 75.53 75.51 75.03 75.79 77.43 76.48 73.76
52.73 53.62 54.55 54.08 59.17 62.69 61.20 60.04 66.59 68.90 69.32 69.21 68.50 69.27 70.05 70.42 71.76 73.45 74.18 74.76 75.50 76.16 76.40 76.11 75.89 75.76 76.02 75.28 75.92 75.31 75.00 75.94 76.86 76.95 77.25 78.76 78.41 78.69 78.31 77.35 78.98 77.48 77.80 78.21 75.96 77.15 77.34 76.68 75.74
54.36 53.70 53.12 54.42 59.12 59.67 57.92 58.39 59.78 67.40 68.68 69.02 69.33 68.83 69.47 70.14 72.35 73.72 74.47 75.04 75.38 76.20 76.64 76.44 75.92 76.27 75.77 74.31 74.36 74.16 73.95 74.93 75.86 77.03 78.43 78.85 78.76 78.81 79.08 77.06 77.55 77.90 76.71 77.04 77.53 76.97 76.64 76.70 72.29
53.83 54.13 53.37 53.98 54.69 57.17 57.02 55.19 57.61 62.85 67.10 68.59 69.72 69.99 69.72 69.95 70.91 72.58 73.86 74.64 75.02 75.63 76.59 77.03 76.37 76.36 76.12 74.88 75.55 75.86 75.92 75.63 76.24 77.06 78.02 79.03 78.97 79.38 78.90 78.83 78.26 77.62 76.20 77.91 77.18 76.49 76.83 77.13 74.61
53.98 53.37 51.97 51.48 53.18 55.63 53.69 53.84 57.45 59.75 64.00 67.46 69.34 70.70 71.42 71.12 70.57 71.51 72.81 73.68 74.87 75.13 76.17 76.68 77.22 76.36 76.64 76.32 76.07 76.94 77.52 77.16 76.37 76.69 77.04 78.16 78.96 79.06 79.32 79.17 79.04 78.23 79.56 76.79 76.41 76.43 76.41 75.22 72.65
53.41 52.63 52.04 51.57 51.31 49.23 53.15 50.13 55.49 56.51 58.60 65.19 67.06 68.83 69.98 71.30 72.46 72.60 72.32 73.11 74.10 75.14 76.48 77.13 77.60 77.00 76.66 77.00 76.72 76.86 75.52 74.71 75.79 76.16 76.87 77.64 79.14 79.03 79.14 79.24 79.29 79.04 77.59 77.78 77.30 77.75 76.60 76.75 74.79
53.38 53.38 52.67 52.25 51.34 50.45 51.48 50.19 53.92 56.63 56.21 58.61 60.93 65.46 68.50 70.76 71.53 72.27 72.81 73.39 74.10 75.23 75.79 76.64 77.56 77.75 77.33 76.93 78.32 76.37 76.18 76.08 76.76 76.92 77.86 78.73 78.88 79.32 78.95 79.22 79.28 79.05 78.06 78.32 77.95 77.27 77.08 77.81 77.20
53.48 53.43 53.50 52.60 51.39 48.10 50.29 50.07 51.83 54.27 56.74 61.16 64.59 65.24 65.49 65.91 70.83 72.24 73.43 74.15 74.28 75.08 75.48 75.97 76.62 77.59 78.06 77.09 77.10 77.44 77.96 76.90 76.25 76.98 76.41 76.44 76.70 77.44 78.88 78.98 78.96 79.23 78.51 78.28 78.55 78.27 77.91 77.16 76.56
53.93 52.41 50.85 48.33 48.68 47.70 51.26 50.74 52.83 55.70 58.99 62.89 66.16 67.86 68.99 68.07 68.40 71.21 72.32 72.86 73.97 74.38 74.74 75.55 76.07 76.39 77.62 77.27 76.91 77.09 77.25 77.80 77.46 77.52 77.10 77.14 75.74 76.04 77.36 79.11 78.91 78.09 78.78 78.66 78.56 78.29 78.53 77.67 76.62
52.62 52.32 49.30 43.57 46.67 47.87 51.66 49.78 53.21 58.16 64.82 67.77 68.77 69.18 66.49 65.76 66.86 69.89 71.95 73.23 74.05 74.54 74.78 75.36 75.49 76.06 76.97 77.16 77.31 78.19 77.91 76.94 77.08 77.55 77.15 76.69 76.15 76.28 78.12 78.18 78.90 78.96 79.03 78.90 78.78 77.86 77.48 77.90 77.39
52.21 52.67 53.19 49.48 50.26 48.25 50.26 52.46 57.17 61.50 64.84 67.76 68.40 69.69 69.20 68.25 67.42 70.35 72.06 73.06 74.05 74.78 74.96 74.88 75.76 76.22 76.56 77.05 77.48 77.58 77.92 77.92 77.45 78.44 78.19 77.48 78.11 76.95 77.86 78.44 78.58 79.03 78.99 79.29 79.13 77.57 77.56 77.86 77.74
53.88 54.06 50.24 52.96 45.96 44.93 49.35 50.37 51.90 59.14 62.73 65.90 68.10 69.40 70.94 71.84 71.99 72.29 72.94 73.60 74.45 75.31 75.66 76.03 76.42 76.05 76.35 76.38 76.79 77.29 77.74 78.14 78.04 78.16 77.96 78.31 78.00 78.37 78.66 78.29 78.58 78.49 78.99 79.29 79.44 77.99 78.17 77.81 78.02
54.38 53.60 53.13 52.05 50.80 47.02 46.56 50.92 57.52 61.03 64.12 64.86 66.72 69.76 70.76 72.02 72.74 73.28 73.82 74.74 75.16 75.62 75.85 76.01 76.05 75.99 75.89 76.13 76.13 76.73 77.34 77.91 78.16 77.71 78.08 78.46 78.50 78.86 78.66 79.12 78.53 78.66 78.66 79.61 79.00 78.87 78.64 78.05 79.04
56.02 54.28 53.86 50.93 49.68 52.73 50.00 50.05 60.84 63.39 65.90 65.95 66.87 69.59 70.85 71.64 72.02 73.35 74.12 74.97 75.46 75.89 75.98 76.02 76.35 76.15 76.32 76.37 76.42 76.35 76.60 76.97 77.08 77.24 77.64 78.28 78.18 78.79 79.01 79.05 78.82 78.77 78.87 79.13 78.95 78.46 78.33 78.33 78.48
MSLP
1012.40 1012.38 1012.75 1012.54 1011.00 1008.51 1008.36 1008.79 1008.62 1008.82 1009.13 1009.42 1009.90 1010.10 1010.35 1010.67 1011.02 1012.10 1013.08 1013.79 1014.55 1015.29 1016.34 1017.46 1018.00 1018.16 1018.32 1018.44 1018.57 1018.68 1018.81 1018.82 1018.89 1018.95 1019.03 1019.10 1019.16 1019.15 1019.24 1019.31 1019.29 1019.37 1019.55 1019.67 1019.57 1019.60 1019.73 1019.91 1020.07
1011.41 1011.99 1011.59 1010.54 1008.70 1007.38 1008.59 1008.46 1008.50 1008.82 1009.07 1009.69 1010.21 1010.48 1010.79 1011.26 1012.09 1012.82 1013.53 1014.30 1014.81 1015.31 1016.31 1017.09 1018.19 1018.38 1018.61 1018.71 1018.82 1018.92 1019.05 1019.15 1019.26 1019.29 1019.30 1019.38 1019.48 1019.55 1019.57 1019.64 1019.73 1019.73 1019.83 1019.87 1019.92 1020.01 1020.13 1020.29 1020.47
1011.45 1011.76 1010.42 1008.83 1007.82 1007.67 1008.26 1008.42 1008.76 1009.23 1009.59 1009.74 1010.39 1010.54 1011.31 1012.06 1012.87 1013.13 1013.81 1014.50 1014.93 1015.45 1015.92 1017.30 1018.25 1018.60 1018.82 1018.94 1019.10 1019.17 1019.30 1019.35 1019.50 1019.49 1019.55 1019.70 1019.74 1019.81 1020.08 1020.04 1020.06 1020.08 1020.19 1020.28 1020.34 1020.40 1020.57 1020.81 1020.91
1011.05 1011.02 1010.05 1008.11 1008.16 1008.61 1008.25 1008.61 1009.00 1009.29 1009.67 1009.77 1010.37 1010.91 1012.52 1013.09 1012.95 1013.47 1014.42 1014.67 1015.08 1015.61 1015.93 1017.99 1018.39 1018.76 1018.96 1019.15 1019.30 1019.32 1019.39 1019.62 1019.73 1019.79 1019.91 1020.02 1019.96 1020.08 1020.20 1020.35 1020.35 1020.47 1020.55 1020.76 1020.77 1020.89 1021.03 1021.14 1021.30
1010.69 1009.59 1008.02 1007.52 1008.03 1008.40 1008.41 1008.83 1008.79 1008.97 1009.30 1009.68 1010.23 1011.34 1012.50 1013.81 1013.76 1014.27 1014.69 1014.85 1015.21 1015.65 1016.45 1017.73 1018.56 1018.82 1019.11 1019.27 1019.57 1019.48 1019.58 1019.72 1019.82 1019.94 1020.11 1020.23 1020.27 1020.43 1020.48 1020.65 1020.66 1020.75 1020.90 1021.06 1021.13 1021.27 1021.48 1021.48 1021.59
1009.08 1008.47 1006.91 1006.93 1007.77 1008.35 1008.51 1008.84 1008.91 1008.85 1009.50 1010.14 1010.47 1011.45 1013.08 1013.98 1014.06 1014.51 1014.79 1014.92 1015.26 1015.77 1016.21 1017.60 1018.73 1018.97 1019.23 1019.43 1019.61 1019.67 1019.73 1019.85 1020.18 1020.23 1020.34 1020.43 1020.52 1020.75 1020.79 1020.95 1020.89 1021.04 1021.19 1021.37 1021.56 1021.66 1021.73 1021.89 1021.77
1007.91 1006.85 1006.84 1006.99 1007.64 1008.13 1008.70 1009.06 1008.82 1008.86 1009.35 1009.80 1010.29 1011.09 1013.39 1013.85 1014.24 1014.60 1014.85 1015.09 1015.37 1015.82 1016.37 1017.20 1017.96 1018.84 1019.34 1019.50 1019.69 1019.73 1019.84 1020.02 1020.25 1020.45 1020.55 1020.62 1020.77 1020.88 1021.02 1021.10 1021.12 1021.31 1021.36 1021.58 1021.68 1021.81 1021.93 1021.89 1022.05
1007.76 1006.85 1006.66 1006.89 1007.12 1008.07 1008.59 1008.64 1008.83 1008.71 1009.24 1010.19 1010.41 1011.12 1012.81 1013.79 1014.48 1014.77 1015.02 1015.31 1015.67 1016.14 1016.40 1016.88 1017.46 1018.15 1018.66 1019.06 1019.73 1019.96 1019.99 1020.16 1020.40 1020.62 1020.74 1020.95 1020.99 1021.08 1021.31 1021.28 1021.28 1021.58 1021.73 1021.76 1021.91 1021.98 1022.11 1022.17 1022.24
1007.57 1005.69 1005.94 1006.51 1006.76 1007.83 1008.41 1008.40 1008.90 1009.13 1009.58 1010.11 1010.62 1010.65 1012.16 1013.90 1014.54 1014.80 1015.11 1015.47 1016.01 1016.35 1016.51 1016.76 1017.29 1018.14 1018.59 1018.73 1019.45 1019.93 1020.19 1020.35 1020.50 1020.70 1020.87 1020.85 1020.27 1020.54 1020.73 1021.43 1021.55 1021.67 1021.92 1022.02 1022.09 1022.12 1022.20 1022.15 1022.38
1006.16 1005.67 1006.40 1006.78 1007.02 1007.59 1008.08 1008.07 1008.71 1008.98 1009.40 1010.43 1011.08 1011.57 1012.84 1013.83 1014.36 1014.46 1014.74 1015.11 1015.57 1016.11 1016.49 1016.70 1017.17 1017.61 1017.97 1018.28 1019.02 1019.24 1019.58 1019.77 1020.11 1019.95 1020.40 1020.58 1020.38 1020.49 1020.50 1021.32 1021.69 1021.86 1022.05 1022.14 1022.25 1022.38 1022.09 1021.77 1022.22
1006.15 1006.03 1006.66 1007.01 1007.20 1007.59 1007.90 1008.14 1008.57 1008.64 1009.01 1009.87 1010.88 1012.03 1013.02 1013.60 1014.01 1014.10 1014.39 1014.67 1015.07 1015.77 1016.42 1016.98 1017.41 1017.92 1017.82 1018.30 1018.44 1018.96 1019.87 1019.73 1020.24 1020.21 1020.20 1020.73 1020.39 1020.84 1020.41 1020.99 1021.43 1021.09 1021.71 1020.96 1021.49 1021.67 1021.22 1021.61 1021.37
1005.61 1006.42 1006.64 1007.07 1007.49 1007.69 1007.75 1008.21 1008.34 1008.59 1008.72 1009.41 1010.87 1011.86 1012.66 1013.19 1013.55 1013.68 1014.01 1014.43 1014.92 1015.63 1016.34 1016.74 1017.26 1017.99 1017.91 1018.29 1018.30 1018.75 1018.70 1019.13 1020.38 1020.52 1020.33 1020.33 1020.10 1020.38 1021.13 1020.93 1020.82 1020.83 1020.76 1021.32 1021.47 1021.80 1022.04 1021.95 1022.09
1005.44 1006.19 1006.62 1007.08 1007.45 1007.34 1007.78 1007.96 1008.05 1008.64 1009.20 1009.78 1010.94 1011.83 1012.29 1012.79 1013.34 1013.61 1014.00 1014.56 1015.05 1015.56 1016.13 1016.48 1017.16 1018.09 1018.33 1018.75 1018.44 1018.42 1018.69 1018.84 1019.01 1019.89 1020.06 1020.03 1020.06 1020.66 1020.62 1021.64 1021.34 1021.10 1021.05 1021.24 1021.66 1022.67 1022.90 1022.21 1022.20
1005.77 1006.13 1006.34 1006.83 1007.11 1007.32 1007.41 1007.83 1008.10 1008.84 1009.36 1010.14 1011.07 1011.67 1012.14 1012.54 1013.14 1013.67 1014.11 1014.60 1015.10 1015.51 1015.90 1016.42 1017.25 1017.96 1018.18 1018.50 1018.90 1018.81 1018.83 1018.83 1019.18 1019.35 1019.90 1020.52 1020.17 1020.60 1020.17 1020.49 1020.68 1020.94 1021.03 1021.24 1022.07 1022.95 1023.01 1022.74 1023.09
1005.76 1005.44 1005.93 1006.30 1006.75 1007.05 1007.28 1007.62 1007.61 1008.77 1009.35 1010.06 1010.82 1011.57 1012.01 1012.56 1013.18 1013.67 1014.13 1014.57 1014.99 1015.45 1015.88 1016.40 1017.09 1017.47 1018.14 1018.58 1018.96 1018.84 1018.85 1018.88 1019.15 1019.40 1020.28 1020.55 1020.59 1020.83 1020.79 1020.73 1020.70 1020.83 1021.15 1021.51 1021.89 1022.48 1022.20 1022.60 1022.83
1005.09 1004.80 1004.58 1005.97 1006.46 1007.00 1006.86 1006.95 1007.97 1008.65 1009.01 1009.67 1010.42 1011.11 1011.72 1012.28 1012.81 1013.45 1014.06 1014.49 1014.94 1015.16 1015.83 1016.53 1016.91 1017.16 1017.81 1018.08 1018.70 1018.55 1018.79 1018.70 1018.99 1019.36 1019.83 1020.38 1020.72 1020.95 1021.08 1020.82 1020.59 1020.77 1021.19 1021.62 1021.83 1021.76 1022.50 1022.86 1023.20
1004.27 1004.37 1004.73 1005.31 1006.08 1006.26 1006.27 1006.14 1007.56 1008.20 1008.37 1009.15 1010.10 1010.71 1011.28 1011.98 1012.55 1013.09 1013.62 1014.11 1014.49 1015.09 1015.80 1016.56 1017.05 1017.30 1017.74 1018.26 1018.40 1018.72 1018.82 1018.91 1018.94 1019.25 1019.49 1020.18 1020.50 1020.81 1020.91 1020.75 1020.64 1021.23 1020.98 1021.06 1021.14 1021.36 1022.13 1022.43 1022.81
1004.90 1004.38 1004.84 1005.07 1005.70 1005.78 1005.55 1005.48 1006.73 1007.74 1007.93 1008.40 1009.25 1009.94 1010.60 1011.24 1011.84 1012.47 1013.07 1013.52 1013.94 1014.74 1015.63 1016.50 1017.12 1017.53 1018.00 1018.21 1018.71 1018.52 1018.62 1018.81 1018.89 1019.09 1019.25 1019.93 1020.06 1020.48 1020.63 1020.22 1021.02 1021.01 1020.93 1021.03 1020.92 1021.56 1021.84 1022.12 1022.55
1005.68 1005.27 1005.04 1005.28 1005.84 1005.47 1005.06 1004.94 1005.25 1006.57 1007.45 1007.70 1008.58 1009.05 1009.71 1010.29 1010.95 1011.65 1012.34 1012.93 1013.54 1014.33 1015.07 1015.90 1016.69 1017.32 1017.91 1018.16 1018.25 1018.30 1018.39 1018.71 1018.88 1018.90 1019.42 1019.86 1020.00 1020.15 1020.40 1020.03 1020.32 1020.73 1020.84 1020.96 1021.27 1021.49 1021.52 1021.79 1022.79
1005.68 1005.21 1004.93 1005.43 1005.80 1005.62 1005.10 1004.66 1004.34 1005.19 1006.04 1006.81 1007.45 1008.29 1008.70 1009.40 1009.97 1010.77 1011.44 1012.23 1013.01 1013.74 1014.61 1015.38 1016.08 1016.85 1017.45 1017.67 1017.92 1017.86 1018.03 1018.20 1018.50 1018.77 1019.15 1019.70 1019.81 1019.97 1020.01 1020.06 1019.96 1020.45 1020.13 1020.80 1020.99 1021.15 1021.38 1021.48 1022.39
1005.19 1005.05 1005.35 1005.41 1005.52 1005.24 1005.17 1004.13 1003.89 1004.25 1005.02 1005.80 1006.52 1007.24 1007.86 1008.48 1009.14 1009.85 1010.59 1011.18 1012.09 1012.88 1013.87 1014.65 1015.47 1016.18 1016.89 1017.13 1017.65 1017.95 1018.05 1018.18 1018.38 1018.65 1018.91 1019.09 1019.52 1019.61 1019.82 1019.82 1019.88 1019.82 1020.40 1020.44 1020.62 1020.75 1020.96 1021.46 1022.49
1004.65 1005.69 1005.67 1005.31 1005.09 1004.24 1004.93 1003.23 1003.73 1004.05 1004.24 1005.19 1005.54 1006.07 1006.58 1007.37 1008.13 1008.78 1009.58 1010.33 1010.94 1011.88 1013.01 1014.05 1014.98 1015.73 1016.43 1016.98 1017.02 1017.35 1017.43 1017.35 1017.47 1017.93 1018.08 1018.32 1018.79 1019.08 1019.24 1019.47 1019.68 1019.87 1019.42 1019.66 1019.89 1020.16 1020.69 1021.10 1021.52
1005.46 1005.83 1005.63 1005.45 1004.91 1004.37 1004.25 1003.42 1003.66 1003.56 1003.64 1003.97 1004.42 1004.88 1005.39 1006.01 1006.84 1007.61 1008.25 1008.93 1009.89 1010.99 1011.97 1013.20 1014.30 1015.12 1015.65 1016.25 1016.50 1017.03 1017.24 1016.99 1017.28 1017.47 1017.88 1018.26 1018.26 1018.69 1018.73 1018.99 1019.24 1019.47 1019.51 1019.42 1019.74 1019.75 1020.22 1020.72 1020.90
1006.01 1005.46 1005.07 1005.07 1004.29 1003.50 1004.17 1003.75 1003.08 1003.47 1004.32 1004.24 1004.28 1004.51 1004.66 1004.66 1005.52 1006.54 1007.54 1008.21 1009.02 1010.15 1011.21 1012.10 1013.31 1014.19 1015.00 1015.60 1016.16 1016.27 1016.36 1016.78 1016.79 1017.14 1017.42 1017.62 1017.54 1017.82 1018.36 1018.51 1018.85 1018.98 1019.01 1019.22 1019.40 1019.54 1019.79 1020.07 1020.13
1005.41 1004.06 1003.39 1003.31 1003.12 1003.02 1004.46 1003.93 1003.34 1003.90 1004.33 1004.33 1004.17 1004.17 1004.01 1004.31 1004.51 1005.46 1006.46 1007.51 1008.26 1009.19 1010.17 1011.28 1012.43 1013.40 1014.14 1014.79 1015.33 1015.77 1016.04 1016.46 1016.66 1017.05 1017.15 1017.15 1016.94 1017.12 1017.31 1018.19 1018.58 1018.53 1018.67 1018.70 1018.84 1019.16 1019.39 1019.57 1019.58
1004.80 1004.15 1003.57 1003.59 1003.41 1003.49 1004.57 1003.78 1003.87 1004.52 1004.28 1004.28 1003.94 1003.89 1003.65 1003.85 1004.17 1004.86 1005.77 1006.89 1007.94 1008.88 1011.11 1012.58 1012.92 1012.79 1013.34 1013.97 1014.45 1015.02 1015.62 1015.87 1016.15 1016.38 1016.48 1016.42 1016.45 1016.64 1016.82 1017.31 1017.94 1018.03 1018.14 1018.24 1018.44 1018.68 1018.81 1018.77 1018.89
1005.03 1004.44 1004.97 1004.07 1004.38 1003.73 1004.07 1003.98 1004.26 1004.25 1004.44 1004.41 1004.26 1004.23 1004.21 1004.04 1004.46 1005.09 1005.83 1006.83 1007.75 1008.81 1010.51 1011.47 1012.26 1012.38 1012.43 1012.89 1013.70 1014.34 1014.84 1015.27 1015.06 1015.71 1016.03 1016.27 1016.41 1016.30 1016.65 1017.15 1017.55 1017.57 1017.67 1017.80 1017.86 1018.05 1018.12 1018.32 1018.36
1005.50 1005.62 1004.76 1004.36 1004.15 1004.07 1003.71 1004.12 1003.82 1004.62 1004.83 1004.83 1004.87 1004.98 1005.16 1005.35 1005.60 1005.85 1006.18 1006.99 1007.70 1008.35 1009.87 1011.10 1011.42 1011.44 1011.97 1012.49 1013.05 1013.62 1013.92 1014.39 1014.80 1015.29 1015.70 1015.80 1015.81 1016.01 1016.25 1016.54 1017.07 1017.15 1017.04 1017.01 1017.43 1017.39 1017.64 1017.82 1017.70
1005.51 1004.95 1005.30 1005.19 1005.32 1004.75 1004.06 1003.61 1004.69 1005.11 1005.23 1005.23 1005.30 1005.85 1006.34 1006.33 1006.69 1006.89 1007.08 1007.56 1008.15 1008.59 1009.18 1009.82 1010.69 1011.16 1011.60 1012.24 1012.85 1013.17 1013.62 1013.91 1014.27 1014.46 1014.89 1015.34 1015.61 1015.64 1015.77 1016.07 1016.42 1016.58 1016.53 1016.77 1016.77 1016.85 1016.78 1016.92 1017.11
1005.79 1005.33 1005.21 1004.87 1005.14 1005.34 1005.55 1004.82 1005.03 1005.44 1005.55 1005.51 1005.77 1006.45 1007.13 1007.46 1007.68 1007.88 1008.20 1008.54 1008.78 1009.19 1009.53 1009.99 1010.46 1010.91 1011.45 1012.18 1012.39 1012.93 1013.63 1013.89 1013.69 1013.83 1014.25 1014.61 1014.91 1015.11 1015.08 1015.39 1015.76 1015.92 1015.95 1016.09 1016.30 1016.33 1016.08 1016.24 1016.40
Wind_Speed
14 9 4 3 6 3 8 6 10 13 10 4 12 2 8 7 9 7 14 12 18 15 15 12 8 9 9 9 10 11 11 10 10 9 7 8 7 6 10 11 10 11 12 13 15 14 14 14 14
7 6 5 4 5 10 7 8 13 7 9 12 7 5 2 10 11 14 15 17 17 15 14 13 8 9 9 9 9 10 11 9 9 7 6 6 7 8 10 10 10 12 13 13 14 14 14 13 12
8 3 5 5 3 10 9 8 9 9 11 13 5 4 2 5 9 16 18 19 16 14 13 15 11 9 9 8 9 9 10 10 8 7 6 6 7 8 10 10 11 12 14 14 14 13 13 13 11
6 5 6 3 12 7 11 9 10 11 11 4 5 8 8 6 12 10 19 18 16 13 14 14 12 11 9 8 8 9 9 10 8 8 7 7 8 9 9 10 10 12 12 12 13 12 12 12 12
4 3 2 6 12 9 10 9 8 10 7 6 4 7 8 6 9 19 18 16 15 14 14 14 10 11 10 8 7 8 9 11 10 10 8 7 10 9 9 10 11 11 12 11 10 11 11 11 12
6 5 5 10 12 8 8 6 4 8 8 8 14 14 8 10 17 17 16 15 14 13 14 15 12 10 10 9 8 8 9 10 9 10 9 8 9 9 10 8 10 9 10 11 9 9 9 8 10
4 4 10 10 10 8 6 4 6 9 8 11 8 14 8 13 15 16 15 14 13 12 12 13 14 11 9 8 8 7 8 8 7 8 8 8 8 9 10 8 11 9 9 9 7 8 6 7 10
3 1 6 4 7 9 6 6 7 7 11 13 5 9 12 16 16 15 13 13 12 11 11 10 11 10 8 10 7 9 8 7 7 9 7 7 10 9 9 8 9 9 9 10 11 9 9 9 11
4 4 9 8 4 8 8 10 5 5 14 6 3 9 21 20 17 15 13 12 11 9 10 10 10 9 7 7 10 10 8 8 9 10 9 10 8 9 10 11 7 9 9 10 10 9 9 9 10
5 8 10 5 6 10 7 5 10 7 12 11 12 17 22 21 17 17 15 13 13 12 10 9 8 9 9 6 9 6 8 6 7 8 9 5 6 6 8 10 10 9 9 9 9 7 5 8 6
4 9 5 5 6 10 8 7 6 8 8 11 16 20 21 21 18 17 15 14 13 12 9 10 8 6 8 7 6 5 4 5 4 8 7 9 6 7 5 6 4 8 10 8 9 7 3 6 2
5 7 3 6 6 8 6 8 6 4 5 12 17 20 20 20 18 17 15 13 12 12 11 11 10 8 6 6 5 7 4 5 7 5 7 6 5 4 5 1 4 3 4 4 2 3 5 4 4
11 6 3 6 5 5 7 6 4 6 5 15 18 19 20 19 17 14 13 12 11 12 11 11 10 8 6 5 5 5 5 5 6 7 6 5 5 6 6 6 5 2 3 4 3 6 3 1 3
9 5 6 6 6 6 3 4 7 3 11 16 17 18 18 18 17 14 13 12 12 11 12 11 10 9 8 6 5 5 5 5 4 5 7 4 3 3 3 5 5 3 4 4 4 3 2 1 1
5 4 8 4 6 4 3 5 3 12 13 16 16 16 16 15 15 15 14 13 13 12 11 11 11 11 9 8 7 6 5 7 6 5 6 6 5 5 2 4 4 4 3 3 6 6 4 3 3
3 5 6 7 4 5 8 9 7 13 14 16 16 17 17 17 17 15 13 12 11 11 12 11 10 11 11 9 7 5 5 5 5 6 6 7 5 4 5 4 4 4 4 4 4 5 2 2 3
5 9 8 9 2 1 4 7 8 12 13 14 14 16 17 17 16 15 15 13 13 12 12 12 11 10 10 8 7 6 6 6 5 6 6 8 7 7 5 4 5 4 5 5 5 4 4 4 6
4 5 7 10 7 1 3 1 11 12 12 14 17 16 17 18 19 17 16 15 14 13 12 12 10 10 9 7 6 6 6 6 5 6 6 8 7 8 7 5 5 6 5 4 6 5 5 4 1
2 1 3 6 6 6 7 8 2 13 14 14 15 16 18 18 18 18 18 17 15 14 13 14 14 13 10 9 8 7 7 7 6 6 6 7 7 8 7 6 5 6 6 7 4 6 7 4 3
2 3 2 3 3 5 6 13 7 9 15 16 16 16 18 19 19 19 19 18 17 16 15 14 14 14 12 9 7 6 6 6 6 7 7 8 9 9 9 7 6 6 7 5 6 7 6 3 5
4 8 7 6 5 6 5 13 10 6 9 11 15 16 17 18 19 20 20 19 18 17 17 16 15 15 14 12 8 7 5 6 6 7 7 9 10 10 10 9 8 6 6 6 7 7 8 4 3
8 3 4 8 9 6 2 2 6 3 5 8 11 15 18 19 20 19 21 21 20 19 17 17 15 15 14 15 11 12 9 9 9 8 8 7 10 11 11 10 9 8 6 5 6 6 7 5 4
6 3 6 9 10 7 7 8 8 3 3 4 4 10 15 18 21 21 21 22 21 19 17 16 17 16 15 16 14 11 12 9 7 6 6 7 6 10 11 10 10 9 8 7 7 6 6 5 6
1 10 8 6 7 6 6 9 7 7 10 11 8 5 9 15 20 21 20 19 18 17 17 17 17 17 17 17 17 16 14 13 9 8 7 7 7 8 11 11 10 9 9 8 7 8 9 8 7
9 14 2 3 4 7 4 8 9 7 11 11 12 8 9 12 17 19 21 19 18 19 20 17 18 17 18 19 18 18 17 14 13 11 9 9 7 7 8 11 10 10 10 10 9 8 8 8 9
3 9 5 3 4 4 3 4 8 8 9 9 8 8 2 7 12 15 17 17 16 16 12 11 15 16 17 17 18 16 16 11 11 12 10 8 7 7 7 8 11 12 11 10 10 9 9 9 9
8 3 8 8 5 6 4 2 10 9 10 11 11 10 9 8 8 9 12 12 13 13 16 20 16 15 16 18 15 15 14 14 12 12 10 9 9 8 8 9 11 11 12 12 11 10 10 10 10
7 3 7 2 4 5 6 3 7 10 11 12 13 12 11 10 7 7 8 10 9 10 13 15 15 14 14 14 13 12 14 14 13 11 12 12 10 10 9 10 11 12 12 12 12 10 11 11 10
7 7 1 5 5 6 5 6 8 6 8 10 12 12 10 10 9 8 7 8 7 7 7 10 11 12 13 13 12 11 11 12 12 12 13 13 14 12 11 11 12 13 13 12 12 12 11 11 11
3 3 7 6 2 2 7 9 6 5 6 8 9 10 10 9 8 7 7 7 7 6 6 7 8 10 11 12 13 11 8 9 11 12 14 13 13 13 12 12 14 14 14 13 13 14 12 13 13
Wind_Direction
174 180 144 222 230 209 72 80 114 120 135 76 138 93 60 22 8 58 135 134 135 138 133 153 142 127 111 109 107 113 113 115 110 96 87 74 101 97 103 98 109 122 116 111 108 107 105 109 112
136 168 213 274 265 90 82 111 116 120 118 136 142 117 108 79 60 122 133 137 143 138 141 139 133 128 119 116 112 113 117 117 112 107 96 91 94 103 93 104 106 105 109 103 106 102 108 114 110
178 198 251 266 38 62 100 115 112 109 141 149 112 31 46 55 113 140 126 143 142 142 140 115 131 135 129 124 120 111 125 125 127 127 110 88 99 110 106 101 106 108 106 107 110 117 109 102 108
175 183 225 82 96 60 92 96 123 127 157 179 117 95 100 37 128 125 143 145 142 142 123 127 137 138 138 133 118 119 107 118 140 146 120 108 106 108 100 109 108 104 110 113 115 108 107 106 102
223 236 132 92 89 96 96 107 126 132 132 147 172 109 93 108 116 134 146 150 142 141 128 143 150 149 143 138 120 117 109 117 115 133 118 118 103 100 107 104 102 99 108 119 112 111 102 94 103
204 262 108 91 89 94 104 118 98 120 109 106 116 107 83 122 140 145 151 149 146 140 141 131 150 146 138 130 119 122 114 120 132 118 116 117 108 103 101 106 106 105 105 105 108 107 111 110 104
316 52 68 82 93 97 107 136 144 119 121 118 134 111 114 142 142 149 155 146 147 142 127 146 147 141 139 130 131 121 121 125 132 132 128 124 119 110 103 106 117 109 104 93 107 96 88 100 121
283 197 120 80 80 96 116 139 132 117 96 118 129 144 155 147 154 151 152 148 147 143 147 137 141 151 154 145 139 134 124 128 139 132 132 135 120 119 108 123 107 111 103 88 96 88 92 110 121
252 110 84 86 100 121 144 126 122 104 141 80 50 139 139 148 158 156 158 157 152 161 155 155 146 146 142 138 124 136 132 130 139 141 139 171 130 149 156 76 116 116 111 96 97 89 86 114 120
300 68 58 36 89 128 149 133 140 155 143 122 97 108 137 152 165 165 167 167 169 162 169 146 152 153 145 145 144 143 128 136 158 148 154 134 128 83 98 118 126 124 121 109 96 81 139 189 124
36 47 80 88 87 136 124 132 144 139 176 157 140 143 153 161 172 174 176 174 171 163 162 158 156 177 149 126 158 151 148 135 133 144 171 137 145 162 142 130 165 150 183 167 174 173 109 56 95
57 64 63 118 130 150 132 132 157 149 85 143 150 154 159 168 176 181 178 176 172 167 173 170 157 167 153 148 179 140 173 155 138 153 153 154 176 139 88 20 122 216 161 103 96 114 70 96 79
27 40 91 111 144 141 137 133 103 152 117 132 148 160 166 173 174 179 178 173 180 177 178 177 163 168 157 181 159 164 140 195 136 167 156 167 151 167 184 140 209 160 125 137 156 61 30 22 67
350 47 109 152 142 144 172 136 184 137 137 144 158 167 170 172 173 173 182 181 188 185 180 177 181 175 181 181 179 173 171 159 154 168 147 179 175 179 185 162 163 164 175 129 72 124 154 181 30
339 99 144 114 161 122 213 162 141 140 148 154 166 170 171 174 175 184 187 187 190 187 182 184 190 184 190 185 183 194 181 163 168 162 157 183 215 168 185 202 209 167 154 175 176 189 186 157 256
284 208 108 67 171 116 246 101 137 154 164 163 168 172 175 178 185 186 189 192 193 191 188 192 194 193 185 190 178 197 190 174 176 165 169 180 189 198 196 182 206 168 195 195 195 226 155 171 158
28 74 66 94 83 82 274 100 146 184 177 167 171 179 182 183 191 189 191 194 194 198 188 192 197 200 189 193 195 201 186 211 185 184 191 173 190 193 206 219 178 205 222 205 218 240 172 210 174
22 60 79 47 40 326 284 305 143 186 193 179 179 182 189 192 194 192 197 198 195 191 188 190 196 200 196 191 212 203 196 206 201 198 198 172 201 198 215 209 201 210 231 246 230 210 233 234 208
344 67 47 75 34 309 357 320 137 177 198 204 186 188 192 198 193 193 198 199 201 195 194 190 189 188 191 198 201 202 204 200 210 217 201 201 221 208 211 237 200 221 236 229 235 228 230 238 100
206 254 64 135 28 292 343 309 324 183 203 202 196 200 200 200 194 195 198 200 203 198 202 198 194 188 195 195 207 213 210 209 214 215 213 223 223 220 225 236 227 218 244 231 242 248 263 244 151
191 358 7 348 314 223 280 261 252 186 210 205 206 201 212 203 203 202 203 202 199 203 201 203 199 190 194 202 194 197 217 231 214 225 222 217 228 230 226 222 244 225 228 234 243 238 247 261 99
293 50 325 320 304 317 341 353 106 272 228 188 211 212 204 210 203 205 205 207 205 204 200 205 203 199 193 196 195 205 210 218 216 223 225 236 215 228 227 227 223 231 248 250 234 230 236 233 222
25 327 320 308 278 259 157 254 102 92 77 16 213 211 218 212 207 206 209 204 208 200 200 199 200 202 202 196 211 199 221 223 233 225 238 232 247 229 225 222 221 225 233 223 252 238 234 236 245
231 264 233 226 244 216 68 312 119 36 351 331 334 290 259 227 211 204 212 207 203 201 201 196 198 203 202 201 204 210 215 224 230 219 238 233 232 212 223 226 225 228 235 235 234 231 232 241 250
238 246 254 232 196 58 47 274 48 20 357 334 329 317 270 215 210 201 200 208 205 200 199 199 195 201 201 205 208 212 217 219 223 230 222 251 246 241 221 218 224 223 226 239 234 228 246 232 244
6 325 5 327 358 43 136 357 76 5 0 352 351 1 28 188 203 194 198 196 207 205 189 227 212 203 202 206 212 212 218 221 225 227 241 236 232 245 247 229 234 227 238 228 232 236 239 242 238
132 246 9 292 174 249 61 42 134 36 35 22 26 41 62 79 132 170 179 188 205 200 178 207 214 206 207 205 207 209 211 220 222 234 230 229 236 246 231 250 244 239 235 234 232 235 241 243 245
333 46 249 176 310 317 104 207 27 11 23 23 36 38 53 74 95 129 152 165 193 201 176 199 205 210 216 217 203 209 207 208 215 225 233 243 241 229 247 232 238 241 237 228 223 236 236 245 246
165 186 135 292 315 321 294 78 53 10 6 12 36 36 41 57 65 86 104 122 158 179 177 186 200 214 216 209 206 211 214 211 211 216 220 229 239 232 231 231 234 240 241 238 225 233 249 237 240
316 54 286 321 107 166 304 299 77 20 2 13 33 43 46 52 62 93 122 142 147 146 157 181 194 215 217 221 207 200 215 228 231 221 229 231 234 237 226 231 235 236 240 240 235 233 237 231 241